sat.trackr.live / text

‹ back to catalog

STARLINK-31261

NORAD 59084 · 2024-041L

PAYLOAD ACTIVE UNKNOWN

§ Identity

Operator
Country
US
Launch date
2024-02-29
Launch site
AFETR
Launch vehicle
Mass (kg)
RCS (m²)

Purposes: comms

External: N2YO · Heavens-Above · Gunter

§ Orbital elements

Epoch: 2026-09-20T02:37:53.903424Z

Period
94.27 min
Inclination
43.0005°
Eccentricity
0.0000900
Mean motion
15.27575831 rev/d
Perigee alt
482.4 km
Apogee alt
483.7 km
Semi-major
6,861.2 km
B*
1.0496e-5
RAAN
292.8823°
Arg perigee
276.7404°
Mean anomaly
83.3345°
Rev number
14,405

§ Raw data

STARLINK-312611 59084U 24041L   26263.10965166  .00000027  00000+0  10496-4 0  99922 59084  43.0005 292.8823 0000900 276.7404  83.3345 15.27575831144057

JSON: /api/v1/satellites/59084 · /tle

For live sub-satellite position, see the globe view (requires WebGL).

§ Visibility from observer

Set your observer location to see the next 7 days of passes ≥ 10°. The values pass through the URL so the page stays shareable.

No JS? Fill the form by hand. The geolocation button needs JavaScript.